• Processing (Info)

  • MPEC 2007-F29 : 2007 FE

    The following Minor Planet Electronic Circular may be linked-to from your own Web pages, but must not otherwise be redistributed electronically.

    A form allowing access to any MPEC is at the bottom of this page.


    Read MPEC 2007-F28 Read MPEC 2007-F30


    M.P.E.C. 2007-F29                                Issued 2007 Mar. 17, 19:25 UT
    
         The Minor Planet Electronic Circulars contain information on unusual
             minor planets and routine data on comets.  They are published
       on behalf of Commission 20 of the International Astronomical Union by the
              Minor Planet Center, Smithsonian Astrophysical Observatory,
                              Cambridge, MA 02138, U.S.A.
    
                 Prepared using the Tamkin Foundation Computer Network
    
                                  MPC@CFA.HARVARD.EDU
              URL http://cfa-www.harvard.edu/iau/mpc.html  ISSN 1523-6714
    
                                        2007 FE
    
    Observations:
         K07F00E* C2007 03 16.48335 16 23 56.36 -01 19 09.4          19.1 V EF029703
         K07F00E  C2007 03 16.48986 16 23 58.48 -01 19 07.8          19.1 V EF029703
         K07F00E  C2007 03 16.49644 16 24 00.64 -01 19 06.5          19.1 V EF029703
         K07F00E  C2007 03 16.50304 16 24 02.77 -01 19 04.5          18.3 V EF029703
         K07F00E  C2007 03 16.51227 16 24 05.79 -01 19 01.5          19.1 V EF029703
         K07F00E  C2007 03 16.51377 16 24 06.33 -01 19 00.8          19.7 V EF029703
         K07F00E  C2007 03 16.51528 16 24 06.76 -01 18 59.9          19.3 V EF029703
         K07F00E  C2007 03 16.51675 16 24 07.34 -01 19 00.4          19.0 V EF029703
         K07F00E 5C2007 03 17.39523 16 29 05.20 -01 14 29.4          19.8 R EF029673
         K07F00E 5C2007 03 17.39679 16 29 05.83 -01 14 28.7                 EF029673
         K07F00E 5C2007 03 17.40028 16 29 06.93 -01 14 27.8                 EF029673
         K07F00E 5C2007 03 17.41064 16 29 10.42 -01 14 24.9                 EF029673
         K07F00E  C2007 03 17.44020 16 29 20.14 -01 14 14.9          19.9 R EF029711
         K07F00E IC2007 03 17.44453 16 29 21.51 -01 14 12.8                 EF029711
         K07F00E IC2007 03 17.44885 16 29 22.91 -01 14 10.1                 EF029711
         K07F00E  C2007 03 17.45908 16 29 26.33 -01 14 08.5          19.8 R EF029711
    
    Observer details:
    673 Table Mountain Observatory, Wrightwood.  Observer J. Bauer.  Measurer
        J. Young.  0.61-m f/16 Cassegrain + CCD.
    703 Catalina Sky Survey.  Observer R. E. Hill.  Measurers E. C. Beshore,
        E. J. Christensen, G. J. Garradd, A. R. Gibbs, A. D. Grauer, R. E. Hill,
        R. A. Kowalski, S. M. Larson, R. H. McNaught.  0.68-m Schmidt + CCD.
    711 McDonald Observatory.  Observer J. G. Ries.  0.76-m reflector + CCD
        + prime-focus corrector.
    
    Orbital elements:
    2007 FE                                             PHA, Earth MOID = 0.0255 AU
    Epoch 2007 Apr. 10.0 TT = JDT 2454200.5                 MPC
    M 345.10153              (2000.0)            P               Q
    n   0.41289494     Peri.  135.19189     -0.20604976     +0.97319080
    a   1.7861161      Node   122.66016     -0.92838450     -0.16141354
    e   0.4554697      Incl.    6.97200     -0.30926641     -0.16384548
    P   2.39           H   19.1           G   0.15           U   9
    Residuals in seconds of arc
    070316 703  0.2+  0.6+    070316 703  0.6-  0.5+    070317 711  1.1+  0.8-
    070316 703  0.0   0.3+    070316 703  0.8+  0.4-    070317 711  0.0   0.0
    070316 703  0.1+  0.4-    070317 673  0.8-  0.0     070317 711  0.6-  1.3+
    070316 703  0.4-  0.4-    070317 673  0.8+  0.2+    070317 711  0.4-  0.3-
    070316 703  0.4-  0.2-    070317 673  0.2-  0.0
    070316 703  0.3+  0.1+    070317 673  0.0   0.3-
    
    Ephemeris:
    2007 FE                  a,e,i = 1.79, 0.46, 7                   q = 0.9726
    Date    TT    R. A. (2000) Decl.     Delta      r     Elong.  Phase     V
    2007 03 11    15 54.82   -01 42.7    0.432    1.222   111.8    49.0    19.5
    2007 03 21    16 50.19   -00 53.9    0.371    1.162   107.4    54.9    19.3
    2007 03 31    17 55.10   +00 14.6    0.332    1.107   100.2    62.6    19.2
    2007 04 10    19 05.67   +01 27.9    0.317    1.059    91.5    71.1    19.2
    2007 04 20    20 14.74   +02 29.1    0.324    1.019    83.3    78.2    19.4
    2007 04 30    21 16.40   +03 10.8    0.349    0.991    77.3    82.6    19.7
    2007 05 10    22 08.97   +03 38.3    0.385    0.975    73.8    83.9    19.9
    2007 05 20    22 53.35   +03 59.3    0.427    0.974    72.6    82.6    20.1
    2007 05 30    23 31.15   +04 17.1    0.470    0.986    73.2    79.7    20.2
    2007 06 09    00 03.77   +04 32.2    0.510    1.012    75.1    75.8    20.3
    2007 06 19    00 31.99   +04 41.3    0.545    1.049    78.1    71.4    20.4
    2007 06 29    00 56.17   +04 39.7    0.572    1.096    82.1    66.8    20.4
    2007 07 09    01 16.44   +04 23.0    0.591    1.150    87.0    62.0    20.5
    2007 07 19    01 32.58   +03 46.5    0.602    1.209    93.0    57.1    20.5
    2007 07 29    01 44.21   +02 46.3    0.606    1.271   100.2    51.8    20.4
    2007 08 08    01 50.90   +01 19.8    0.605    1.336   108.5    46.1    20.4
    2007 08 18    01 52.06   -00 34.0    0.602    1.401   118.2    39.6    20.3
    2007 08 28    01 47.42   -02 51.1    0.603    1.467   129.1    32.3    20.2
    2007 09 07    01 37.28   -05 21.3    0.611    1.532   141.1    24.4    20.1
    2007 09 17    01 22.79   -07 47.5    0.634    1.597   153.1    16.6    20.0
    2007 09 27    01 06.19   -09 48.8    0.676    1.660   162.6    10.4    20.0
    2007 10 07    00 50.14   -11 10.2    0.739    1.721   163.6     9.4    20.2
    2007 10 17    00 36.83   -11 46.6    0.824    1.781   156.0    13.2    20.7
    2007 10 27    00 27.54   -11 42.1    0.929    1.839   146.0    17.6    21.2
    2007 11 06    00 22.48   -11 05.8    1.051    1.895   136.2    21.3    21.6
    2007 11 16    00 21.32   -10 06.0    1.187    1.948   126.8    24.0    22.0
    
    Kyle E. Smalley              (C) Copyright 2007 MPC           M.P.E.C. 2007-F29
    

    Read MPEC 2007-F28 Read MPEC 2007-F30


    MPEC number:

    Enter an MPEC number in one of the following forms:

    • 1997-B01 (the full form)
    • J97B01 (the packed version of the full form)
    • B01 (the abbreviated form)